Location: Derby
(52.9213°N, 1.4761°W)
Time: 01:13:20
(UTC+01:00)

A-11 Canister half - Pass Details

Date: 21 May 2025
Orbit: 1524 x 1684 km, 47.3° (Epoch: 12 June)

Event Time Altitude Azimuth Distance (km) Brightness Sun altitude
Rises 01:59:25 0° 285° (WNW) 4,806 11.6 -15.8°
Reaches altitude 10° 02:02:55 10° 276° (W) 3,842 11.0 -15.7°
Maximum altitude 02:11:06 31° 219° (SW) 2,580 9.7 -15.4°
Drops below altitude 10° 02:19:27 10° 162° (SSE) 3,922 10.7 -15.0°
Enters shadow 02:21:18 - 157° (SSE) 4,417 11.0 -14.9°
